Location: Peebles
(55.6412°N, 3.1714°W)
Time: 20:56:21
(UTC+01:00)

deb AGENA D - Pass Details

Date: 04 July 2022
Orbit: 951 x 1019 km, 99.8° (Epoch: 17 August)

Event Time Altitude Azimuth Distance (km) Brightness Sun altitude
Rises 23:54:49 0° 109° (ESE) 3,758 ? -9.5°
Reaches altitude 10° 23:57:46 10° 96° (E) 2,811 ? -9.7°
Maximum altitude 00:02:39 24° 46° (NE) 1,969 ? -9.9°
Drops below altitude 10° 00:07:31 10° 355° (N) 2,810 ? -10.1°
Sets 00:10:27 0° 343° (NNW) 3,756 ? -10.2°
